EW6690 Weather Reports


time (UTC)temp
F
wind
direction
speed
knots
gust
knots
rain 1hr
in
rain 24hr
in
rain mn
in
humidity
%
barometer
mb
20260503200407 77 304 0.0 0.9 0.00 0.00 0.00 51 1011.0
20260503195922 77 288 0.0 0.0 0.00 0.00 0.00 54 1011.1
20260503195407 76 320 0.0 0.9 0.00 0.00 0.00 53 1011.1
20260503194913 76 134 0.0 0.9 0.00 0.00 0.00 52 1011.3
20260503194405 76 298 0.0 0.9 0.00 0.00 0.00 53 1011.3
20260503193910 76 312 0.0 0.9 0.00 0.00 0.00 54 1011.3
20260503193754 75 321 0.0 0.9 0.00 0.00 0.00 53 1011.4
20260503192905 76 48 0.0 1.7 0.00 0.00 0.00 53 1011.4
20260503192438 75 30 0.0 1.7 0.00 0.00 0.00 56 1011.5
20260503191905 75 302 0.0 0.0 0.00 0.00 0.00 56 1011.6
20260503191432 75 73 0.0 0.0 0.00 0.00 0.00 57 1011.7
20260503190906 74 300 0.0 0.0 0.00 0.00 0.00 56 1011.8
20260503190427 74 311 0.0 0.0 0.00 0.00 0.00 57 1011.8
20260503185905 74 91 0.0 0.0 0.00 0.00 0.00 56 1011.9
20260503185422 74 279 0.0 0.9 0.00 0.00 0.00 60 1011.9
20260503184906 73 303 0.0 0.9 0.00 0.00 0.00 61 1012.0
20260503184415 73 321 0.0 0.0 0.00 0.00 0.00 59 1012.0
20260503184301 73 276 0.0 0.0 0.00 0.00 0.00 58 1012.1
20260503183414 72 299 0.0 0.0 0.00 0.00 0.00 63 1012.1
20260503182905 72 310 0.0 0.0 0.00 0.00 0.00 61 1012.1
20260503182405 72 65 0.0 0.0 0.00 0.00 0.00 63 1012.2
20260503181944 71 313 0.0 0.0 0.00 0.00 0.00 64 1012.2
20260503181406 70 313 0.0 0.0 0.00 0.00 0.00 62 1012.2
20260503180936 70 113 0.0 0.9 0.00 0.00 0.00 66 1012.2
20260503180406 70 295 0.0 0.9 0.00 0.00 0.00 64 1012.2
20260503180230 70 294 0.0 0.9 0.00 0.00 0.00 62 1012.3
20260503175407 70 319 0.0 0.0 0.00 0.00 0.00 65 1012.2
20260503174924 69 302 0.0 0.0 0.00 0.00 0.00 65 1012.3
20260503174405 69 286 0.0 0.0 0.00 0.00 0.00 65 1012.4
20260503173916 69 315 0.0 0.0 0.00 0.00 0.00 67 1012.3
20260503173402 69 321 0.0 0.0 0.00 0.00 0.00 67 1012.4
20260503172911 68 304 0.0 0.0 0.00 0.00 0.00 70 1012.5
20260503172753 68 327 0.0 0.0 0.00 0.00 0.00 68 1012.5
20260503171908 67 272 0.0 0.0 0.00 0.00 0.00 67 1012.5
20260503171444 68 310 0.0 0.0 0.00 0.00 0.00 67 1012.5
20260503170904 68 329 0.0 0.0 0.00 0.00 0.00 68 1012.6
20260503170440 68 329 0.0 0.0 0.00 0.00 0.00 67 1012.5
20260503150917 64 102 0.0 0.0 0.00 0.00 0.00 70 1012.8
20260503150354 63 102 0.0 0.0 0.00 0.00 0.00 73 1012.7
20260503150150 61 102 0.0 0.0 0.00 0.00 0.00 78 1012.7
20260503131407 55 102 0.0 0.0 0.00 0.00 0.00 88 1012.6
20260503130846 54 102 0.0 0.0 0.00 0.00 0.00 88 1012.6
20260503130636 54 102 0.0 0.0 0.00 0.00 0.00 88 1012.6
20260503110405 57 102 0.0 0.0 0.00 0.00 0.00 83 1012.9
20260503090335 59 102 0.0 0.0 0.00 0.00 0.00 81 1013.1
20260503081349 59 120 0.0 0.0 0.00 0.00 0.00 75 1013.3
20260503080832 59 120 0.0 0.0 0.00 0.00 0.00 74 1013.3
20260503080346 59 120 0.0 0.0 0.00 0.00 0.00 76 1013.2
20260503072902 58 120 0.0 0.0 0.00 0.00 0.00 72 1013.2
20260503072717 58 120 0.0 0.0 0.00 0.00 0.00 71 1013.2
20260503072151 58 120 0.0 0.0 0.00 0.00 0.00 71 1013.1
20260503071328 58 120 0.0 0.0 0.00 0.00 0.00 72 1013.2
20260503070847 58 120 0.0 0.0 0.00 0.00 0.00 71 1013.1
20260503070326 58 120 0.0 0.0 0.00 0.00 0.00 71 1013.2
20260503054823 62 120 0.0 0.0 0.00 0.00 0.00 62 1012.9
20260503054335 63 120 0.0 0.0 0.00 0.00 0.00 61 1012.9
20260503054210 63 300 0.0 0.0 0.00 0.00 0.00 61 1012.9
20260503053333 64 300 0.0 0.0 0.00 0.00 0.00 60 1012.8
20260503052823 64 300 0.0 0.0 0.00 0.00 0.00 59 1012.9
20260503052326 64 300 0.0 0.0 0.00 0.00 0.00 58 1012.8
20260503052208 64 300 0.0 0.0 0.00 0.00 0.00 58 1012.8
20260503051323 64 294 0.0 0.0 0.00 0.00 0.00 58 1012.8
20260503051200 65 296 0.0 0.0 0.00 0.00 0.00 57 1012.8
20260503050706 65 296 0.0 0.0 0.00 0.00 0.00 57 1012.8
20260503045847 65 294 0.0 0.0 0.00 0.00 0.00 57 1012.8
20260503045323 65 294 0.0 0.0 0.00 0.00 0.00 56 1012.7
20260503044840 65 294 0.0 0.0 0.00 0.00 0.00 55 1012.7
20260503044323 65 288 0.0 0.0 0.00 0.00 0.00 56 1012.6
20260503043840 66 288 0.0 0.0 0.00 0.00 0.00 55 1012.6
20260503043319 66 288 0.0 0.0 0.00 0.00 0.00 54 1012.6
20260503043127 67 278 0.0 0.0 0.00 0.00 0.00 53 1012.5
20260503042316 67 319 0.0 0.0 0.00 0.00 0.00 53 1012.6
20260503041826 66 266 0.0 1.7 0.00 0.00 0.00 54 1012.5
20260503041701 66 101 0.0 1.7 0.00 0.00 0.00 55 1012.5
20260503040820 66 219 0.0 0.0 0.00 0.00 0.00 58 1012.4
20260503040315 66 220 0.0 0.0 0.00 0.00 0.00 56 1012.3
20260503035818 66 142 0.0 0.0 0.00 0.00 0.00 57 1012.2
20260503035350 66 142 0.0 0.0 0.00 0.00 0.00 58 1012.1
20260503035101 66 142 0.0 0.0 0.00 0.00 0.00 61 1012.1
20260503034346 67 142 0.0 0.0 0.00 0.00 0.00 62 1012.0
20260503033813 67 142 0.0 0.0 0.00 0.00 0.00 61 1011.9
20260503033340 68 142 0.0 0.0 0.00 0.00 0.00 61 1011.8
20260503032812 68 142 0.0 0.0 0.00 0.00 0.00 60 1011.8
20260503032334 68 142 0.0 0.0 0.00 0.00 0.00 59 1011.8
20260503032204 69 121 0.0 0.0 0.00 0.00 0.00 59 1011.8
20260503031617 69 302 0.0 0.9 0.00 0.00 0.00 59 1011.6
20260503030812 69 120 0.0 2.6 0.00 0.00 0.00 59 1011.5
20260503030321 70 300 0.0 2.6 0.00 0.00 0.00 58 1011.5
20260503025827 70 142 0.0 2.6 0.00 0.00 0.00 57 1011.4
20260503025319 71 275 0.0 2.6 0.00 0.00 0.00 57 1011.3
20260503024856 71 298 0.0 0.9 0.00 0.00 0.00 57 1011.2
20260503024319 72 331 0.0 0.9 0.00 0.00 0.00 56 1011.2
20260503023851 72 350 0.0 1.7 0.00 0.00 0.00 56 1011.2
20260503023314 72 309 0.0 1.7 0.00 0.00 0.00 56 1011.2
20260503023151 73 150 0.0 0.9 0.00 0.00 0.00 55 1011.2
20260503022317 73 76 0.0 1.7 0.00 0.00 0.00 56 1011.2
20260503021938 73 334 0.0 6.1 0.00 0.00 0.00 54 1011.3
20260503021902 73 277 0.0 3.5 0.00 0.00 0.00 54 1011.2
20260503021400 73 301 0.0 6.1 0.00 0.00 0.00 56 1011.2
20260503020310 74 298 0.0 0.9 0.00 0.00 0.00 54 1011.2
20260503015828 74 309 0.0 0.9 0.00 0.00 0.00 54 1011.3
20260503015311 74 312 0.0 0.0 0.00 0.00 0.00 55 1011.3
20260503014824 74 309 0.0 2.6 0.00 0.00 0.00 54 1011.3
20260503014307 74 286 0.0 2.6 0.00 0.00 0.00 52 1011.3
20260503013819 75 176 0.0 0.9 0.00 0.00 0.00 53 1011.4
20260503013701 74 312 0.0 1.7 0.00 0.00 0.00 54 1011.4
20260503012812 75 83 0.0 1.7 0.00 0.00 0.00 53 1011.3
20260503012401 75 325 0.0 6.1 0.00 0.00 0.00 53 1011.5
20260503011810 74 51 0.0 6.1 0.00 0.00 0.00 53 1011.4
20260503011346 74 289 0.0 1.7 0.00 0.00 0.00 53 1011.4
20260503010807 74 328 0.0 2.6 0.00 0.00 0.00 53 1011.4
20260503010340 74 301 0.0 4.3 0.00 0.00 0.00 53 1011.4
20260503005805 74 299 0.9 6.1 0.00 0.00 0.00 53 1011.4
20260503005333 74 305 0.9 7.0 0.00 0.00 0.00 53 1011.5
20260503004803 75 281 0.9 7.0 0.00 0.00 0.00 53 1011.4
20260503004328 75 319 0.0 4.3 0.00 0.00 0.00 54 1011.5
20260503003803 75 295 0.0 7.0 0.00 0.00 0.00 54 1011.5
20260503003322 75 302 0.9 7.0 0.00 0.00 0.00 52 1011.4
20260503002805 75 302 0.0 4.3 0.00 0.00 0.00 54 1011.4
20260503002318 75 308 0.0 3.5 0.00 0.00 0.00 55 1011.4
20260503002203 75 283 0.0 3.5 0.00 0.00 0.00 55 1011.4
20260503001310 75 300 0.0 4.3 0.00 0.00 0.00 55 1011.5
20260503000804 75 319 0.0 7.0 0.00 0.00 0.00 55 1011.5
20260503000307 74 347 0.0 7.0 0.00 0.00 0.00 54 1011.5
20260502235842 74 298 0.0 7.0 0.00 0.00 0.00 55 1011.6
20260502235523 74 312 0.0 7.0 0.00 0.00 0.00 57 1011.7
20260502235516 74 261 0.0 7.0 0.00 0.00 0.00 58 1011.7
20260502235336 74 316 0.9 7.0 0.00 0.00 0.00 56 1011.6
20260502233834 74 285 0.0 5.2 0.00 0.00 0.00 57 1011.9
20260502233303 74 295 0.0 3.5 0.00 0.00 0.00 57 1012.0
20260502232840 74 325 0.0 3.5 0.00 0.00 0.00 58 1012.0
20260502232304 74 107 0.0 3.5 0.00 0.00 0.00 56 1012.1
20260502231822 74 313 0.0 3.5 0.00 0.00 0.00 58 1012.1
20260502231302 74 301 0.0 7.8 0.00 0.00 0.00 57 1012.2
20260502230817 73 70 0.9 7.8 0.00 0.00 0.00 60 1012.2
20260502230259 73 292 0.9 7.8 0.00 0.00 0.00 59 1012.3
20260502230018 72 331 0.9 7.0 0.00 0.00 0.00 59 1012.5
20260502225839 73 300 0.9 7.8 0.00 0.00 0.00 60 1012.4
20260502225332 73 286 0.9 7.0 0.00 0.00 0.00 58 1012.4
20260502224339 72 112 0.9 7.0 0.00 0.00 0.00 59 1012.5
20260502223800 72 313 0.9 7.0 0.00 0.00 0.00 59 1012.6
20260502222759 72 288 0.9 6.1 0.00 0.00 0.00 60 1012.6
20260502222326 73 290 0.9 3.5 0.00 0.00 0.00 59 1012.7
20260502222224 74 310 0.0 7.0 0.00 0.00 0.00 60 1012.8
20260502222205 73 308 0.9 7.0 0.00 0.00 0.00 56 1012.7
20260502220757 74 300 0.0 5.2 0.00 0.00 0.00 56 1012.8
20260502220314 74 269 0.9 5.2 0.00 0.00 0.00 57 1012.9
20260502215757 74 306 0.0 3.5 0.00 0.00 0.00 57 1012.9
20260502215312 74 278 0.0 3.5 0.00 0.00 0.00 57 1013.0
20260502214759 74 317 0.0 3.5 0.00 0.00 0.00 58 1013.0
20260502214305 73 292 0.0 3.5 0.00 0.00 0.00 58 1013.0
20260502213759 73 307 0.0 2.6 0.00 0.00 0.00 59 1013.1
20260502213548 73 104 0.0 4.3 0.00 0.00 0.00 58 1013.1
20260502212835 72 281 0.0 4.3 0.00 0.00 0.00 59 1013.1
20260502212258 72 329 0.0 4.3 0.00 0.00 0.00 58 1013.2
20260502211832 73 309 0.0 3.5 0.00 0.00 0.00 56 1013.2
20260502211253 73 326 0.0 1.7 0.00 0.00 0.00 58 1013.3
20260502210827 72 157 0.0 6.1 0.00 0.00 0.00 60 1013.3
20260502210255 72 5 0.0 6.1 0.00 0.00 0.00 60 1013.3
20260502205822 72 144 0.0 0.0 0.00 0.00 0.00 61 1013.4
20260502205646 71 90 0.0 1.7 0.00 0.00 0.00 62 1013.4
20260502204817 71 113 0.0 1.7 0.00 0.00 0.00 62 1013.4
20260502204650 71 300 0.0 3.5 0.00 0.00 0.00 63 1013.5
20260502203811 70 297 0.0 3.5 0.00 0.00 0.00 60 1013.5
20260502203643 70 314 0.0 2.6 0.00 0.00 0.00 62 1013.6
20260502202806 70 306 0.0 2.6 0.00 0.00 0.00 62 1013.6
20260502202249 69 292 0.0 1.7 0.00 0.00 0.00 63 1013.7
20260502201800 69 286 0.0 7.8 0.00 0.00 0.00 63 1013.6
20260502201245 69 306 0.0 7.8 0.00 0.00 0.00 65 1013.7
20260502200755 69 296 0.0 2.6 0.00 0.00 0.00 65 1013.8